Hourly Data Report for October 08, 2013

All times are specified in Local Standard Time (LST). Add 1 hour to adjust for Daylight Saving Time where and when it is observed.

KITCHENER/WATERLOO
ONTARIO

43°27'39.000" N
80°22'43.000" W
321.60 m
6144239
71368
YKF

Download Data

Hourly Data (October 2013)
Hourly Data Report for October 8, 2013
Temp Definition
°C
Dew Point Temp Definition
°C
Rel Hum Definition
%
Wind Dir Definition
10's deg

Wind Spd Definition
km/h
Visibility Definition
km
Stn Press Definition
kPa
Hmdx Definition


Wind Chill Definition


Weather Definition


TIME
00:00 Legend Double Dagger 7.1 6.4 95 23 11 16.1 98.06     LegendNANA
01:00 Legend Double Dagger 7.5 6.5 93 23 11 16.1 98.13     LegendNANA
02:00 Legend Double Dagger 6.9 6.0 94 22 11 16.1 98.18     LegendNANA
03:00 Legend Double Dagger 6.8 6.2 96 25 5 16.1 98.24     LegendNANA
04:00 Legend Double Dagger 6.6 6.3 98   0 3.6 98.31     LegendNANA
05:00 Legend Double Dagger 4.1 4.0 99 LegendMM 4 0.6 98.37     LegendNANA
06:00 Legend Double Dagger 5.4 5.2 99 29 8 6.4 98.45     LegendNANA
07:00 Legend Double Dagger 4.6 4.5 99 19 4 0.4 98.57     LegendNANA
08:00 Legend Double Dagger 8.8 8.2 96   0 16.1 98.66     LegendNANA
09:00 Legend Double Dagger 11.8 9.1 83   0 16.1 98.73     LegendNANA
10:00 Legend Double Dagger 13.3 8.5 72 22 8 16.1 98.74     LegendNANA
11:00 Legend Double Dagger 13.2 7.6 69   0 16.1 98.76     LegendNANA
12:00 Legend Double Dagger 15.2 6.1 54 33 5 16.1 98.75     LegendNANA
13:00 Legend Double Dagger 16.4 5.5 48 LegendMM 11 16.1 98.71     LegendNANA
14:00 Legend Double Dagger 16.6 5.3 47 LegendMM 4 16.1 98.70     LegendNANA
15:00 Legend Double Dagger 17.0 4.8 44 32 9 16.1 98.68     LegendNANA
16:00 Legend Double Dagger 16.9 5.4 46 LegendMM 4 16.1 98.71     LegendNANA
17:00 Legend Double Dagger 16.5 7.5 55 LegendMM 4 16.1 98.71     LegendNANA
18:00 Legend Double Dagger 11.1 7.4 78 3 5 16.1 98.73     LegendNANA
19:00 Legend Double Dagger 9.7 6.8 82 11 13 16.1 98.78     LegendNANA
20:00 Legend Double Dagger 9.3 7.3 87 LegendMM 4 16.1 98.81     LegendNANA
21:00 Legend Double Dagger 8.4 7.3 93 9 5 16.1 98.85     LegendNANA
22:00 Legend Double Dagger 8.0 7.7 98 10 4 9.7 98.83     LegendNANA
23:00 Legend Double Dagger 5.4 5.0 97 11 4 0.6 98.83     LegendNANA

Notes on Data Quality.

Legend

  • E = Estimated
  • M = Missing
  • NA = Not Available
  • ‡ = Partner data that is not subject to review by the National Climate Archives
Date modified: